Regional Weather Roundup
Issued by NWS Columbia, SC

Home | Current Version | Previous Version | Text Only | Print | Product List | Glossary On
Versions: 1 2 3 4 5 6 7 8 9 10 11 12 13 14 15 16 17 18 19 20 21 22 23 24 25 26 27 28 29 30 31 32 33 34 35 36 37 38 39 40 41 42 43 44 45 46 47 48 49 50
000
ASUS42 KCAE 040210
RWRCAE
REGIONAL WEATHER ROUNDUP
NATIONAL WEATHER SERVICE COLUMBIA SC
1000 PM EDT SUN MAY 03 2015

NOTE: "FAIR" INDICATES FEW OR NO CLOUDS BELOW 12,000 FEET WITH NO
SIGNIFICANT WEATHER AND/OR OBSTRUCTIONS TO VISIBILITY.

NOT ALL STATIONS ARE QUALITY CONTROLLED BY THE NATIONAL
WEATHER SERVICE. USE DATA WITH CAUTION...ESPECIALLY
DEWPOINT OBSERVATIONS.

SCZ001>056-GAZ040-063>065-077-040300-
...UPSTATE SOUTH CAROLINA...

CITY           SKY/WX    TMP DP  RH WIND       PRES   REMARKS
ANDERSON       CLEAR     64  53  67 CALM      30.18R
LIBERTY        CLEAR     64  53  66 S5        30.18R
SPARTANBURG    CLEAR     64  52  63 CALM      30.18R
CLEMSON        CLEAR     70  50  49 CALM      30.18R
GREENVILLE     CLEAR     70  49  47 S5        30.19R
GREENWOOD      CLEAR     62  54  74 CALM      30.19R
GREER          CLEAR     64  51  62 S3        30.17R
ROCK HILL      CLEAR     61  51  70 SW3       30.19R
CHESTER        CLEAR     68  50  52 S3        30.19R
LAURENS        CLEAR     63  57  82 CALM      30.18R


...CENTRAL SOUTH CAROLINA...

CITY           SKY/WX    TMP DP  RH WIND       PRES   REMARKS
COLUMBIA APT   MOCLDY    67  54  63 CALM      30.18R
COLUMBIA OWENS CLEAR     67  54  63 CALM      30.19R
DARLINGTON     CLEAR     68  52  56 S10       30.21R
FLORENCE       PTCLDY    66  54  65 SE9       30.21R
MCENTIRE ANGB  MOCLDY    62  55  78 E3        30.19R
ORANGEBURG     CLEAR     64  55  72 SE3       30.19R
SUMTER SHAW    CLEAR     68  54  61 S6        30.18R
NEWBERRY       CLEAR     61  52  72 S3        30.21R
AIKEN          FAIR      63  52  67 CALM      30.22R
BARNWELL       FAIR      64  55  72 CALM      30.19R
MANNING        FAIR      64  50  59 CALM      30.21R
CAMDEN         FAIR      66  50  55 CALM      30.19R
LANCASTER      CLEAR     66  50  55 CALM      30.19R
WINNSBORO      CLEAR     68  50  52 SE5       30.19R


...EASTERN AND COASTAL SOUTH CAROLINA...

CITY           SKY/WX    TMP DP  RH WIND       PRES   REMARKS
MYRTLE BEACH   CLEAR     68  57  68 S12       30.24R
N MYRTLE BCH   CLEAR     68  57  68 S7        30.23R
CONWAY         FAIR      59  59 100 CALM      30.23R
MARION         FAIR      64  54  68 S3        30.22R
HARTSVILLE     FAIR      64  50  59 SE6       30.21R
FLORENCE       PTCLDY    66  54  65 SE9       30.21R
DARLINGTON     CLEAR     68  52  56 S10       30.21R
CHARLESTON APT CLEAR     65  59  81 SE7       30.22R
MOUNT PLEASANT FAIR      63  61  94 MISG      30.23R
WALTERBORO     CLEAR     63  55  77 CALM      30.21R
BEAUFORT       CLEAR     70  58  65 S3        30.21R


...EASTERN GEORGIA...

CITY           SKY/WX    TMP DP  RH WIND       PRES   REMARKS
AUGUSTA BUSH F CLEAR     60  54  80 CALM      30.18R
AUGUSTA DANIEL CLEAR     72  51  47 CALM      30.18R
THOMSON        CLEAR     64  60  88 CALM      30.23R
WASHINGTON     FAIR      64  61  88 CALM      30.18R
CLAXTON        FAIR      63  55  77 CALM      30.20R
SYLVANIA       CLEAR     68  53  57 S5        30.20R
STATESBORO       N/A     66  54  63 CALM      30.20R
SAVANNAH       CLEAR     66  52  60 S5        30.21R


...SOUTHERN NORTH CAROLINA...

CITY           SKY/WX    TMP DP  RH WIND       PRES   REMARKS
CHARLOTTE      CLEAR     66  47  50 S5        30.19R
MONROE         CLEAR     62  49  62 CALM      30.18R
WADESBORO      CLEAR     62  53  71 CALM      30.18R
ROCKINGHAM     CLEAR     68  49  49 S9        30.19R
RUTHERFORDTON  CLEAR     66  46  49 S5        30.19R
ASHEVILLE      MOCLDY    64  47  53 CALM      30.22R

$$



USA.gov is the U.S. government's official web portal to all federal, state and local government web resources and services.